20070427,12967
20070501,12965
20070502,12965
20070507,12962
20070508,13216
20070509,13306
20070510,13522
20070511,13631
20070514,13765
20070515,14182
20070516,14126
20070517,14524
20070518,14846
20070521,14855
20070522,14991
20070523,15776
20070524,16374
20070525,16728
20070528,17210
20070529,17765
20070530,18034
20070531,18307
20070601,18894
20070604,19341
20070605,19509
20070606,19629
20070607,19630
20070608,19739
20070611,19627
20070612,19867
20070613,20043
20070614,20274
20070615,20645
20070618,21044
20070619,21577
20070620,21693
20070621,21974
20070622,22186
20070625,22391
20070626,22426
20070627,22523
20070628,22448
20070629,22852
20070702,23265
20070703,23361
20070704,23743
20070705,24013
20070706,24300
20070709,24531
20070710,24866
20070711,24908
20070712,25052
20070713,25528
20070717,25657
20070718,25892
20070719,25802
20070720,26233
20070723,26454
20070724,26623
20070725,26761
20070726,26701
20070727,26146
20070730,25323
20070731,25446
20070801,25775
20070802,25207
20070803,25222
20070806,24963
20070807,24480
20070808,24651
20070809,25552
20070810,25331
20070813,24908
20070814,24722
20070815,24569
20070816,23498
20070817,21919
20070820,21662
20070821,22677
20070822,22948
20070823,23984
20070824,24566
20070827,24716
20070828,24908
20070829,24573
20070830,24710
20070831,25210
20070903,25654
20070904,25925
20070905,26039
20070906,26034
20070907,26166
20070910,25650
20070911,25634
20070912,25760
20070913,26092
20070914,26306
20070918,26484
20070919,26699
20070920,27654
20070921,27762
20070925,28255
20070926,28309
20070927,28693
20070928,29274
20071001,29483
20071002,30158
20071003,30941
20071004,31009
20071005,30621
20071009,31387
20071010,31662
20071011,32086
20071012,32578
20071015,32620
20071016,32708
20071017,32344
20071018,32249
20071019,32017
20071022,31487
20071023,30633
20071024,31278
20071025,31142
20071026,31657
20071029,32040
20071030,32656
20071031,32636
20071101,32362
20071102,32296
20071105,31957
20071106,31179
20071107,31215
20071108,30999
20071109,30607
20071112,29771
20071113,28795
20071114,28564
20071115,29106
20071116,28831
20071119,28354
20071120,27954
20071121,27473
20071122,26491
20071126,26443
20071127,26785
20071128,26867
20071129,27475
20071130,27936
20071203,28326
20071204,28495
20071205,28585
20071206,28994
20071207,29406
20071210,29233
20071211,28976
20071212,28769
20071213,28630
20071214,28402
20071217,28163
20071218,27260
20071219,27142
20071220,27330
20071221,27258
20071225,28233
20071226,28259
20071227,28681
20071228,28684
20080104,27039
20080107,27243
20080108,27004
20080109,27007
20080110,27428
20080111,27057
20080115,26340
20080116,25427
20080117,24612
20080118,24508
20080121,24286
20080122,23077
20080123,21874
20080124,22751
20080125,22936
20080128,23809
20080129,23404
20080130,23771
20080131,23514
20080201,23733
20080204,24155
20080205,24735
20080206,24575
20080207,23880
20080208,24070
20080212,23518
20080213,23760
20080214,23960
20080215,24419
20080218,24452
20080219,24357
20080220,24552
20080221,24179
20080222,23922
20080225,23519
20080226,23799
20080227,23675
20080228,23696
20080229,23378
20080303,22755
20080304,22261
20080305,21899
20080306,21729
20080307,21798
20080310,21464
20080311,20575
20080312,20799
20080313,20831
20080314,20013
20080317,19106
20080318,18107
20080319,18493
20080321,18300
20080324,18275
20080325,18506
20080326,18942
20080327,18812
20080328,19030
20080331,19530
20080401,19373
20080402,19697
20080403,19935
20080404,19793
20080407,19761
20080408,19987
20080409,19958
20080410,19431
20080411,19688
20080414,19853
20080415,19423
20080416,19648
20080417,19850
20080418,20159
20080421,20415
20080422,20349
20080423,20304
20080424,20475
20080425,20725
20080428,20519
20080430,20543
20080501,20418
20080502,20534
20080507,21024
20080508,20873
20080509,20491
20080512,20080
20080513,20400
20080514,20614
20080515,20639
20080516,20619
20080519,20470
20080520,20639
20080521,20198
20080522,19974
20080523,19854
20080526,19462
20080527,19043
20080528,19227
20080529,19300
20080530,19550
20080602,19536
20080603,19313
20080604,19172
20080605,18909
20080606,18908
20080609,18745
20080610,18946
20080611,18424
20080612,18106
20080613,18152
20080616,18025
20080617,18292
20080618,18251
20080619,18198
20080620,17938
20080623,17827
20080624,17706
20080625,17593
20080626,17730
20080627,17571
20080630,17200
20080701,17216
20080702,17164
20080703,16935
20080704,16699
20080707,16787
20080708,16947
20080709,16819
20080710,16929
20080711,16971
20080714,17031
20080715,16997
20080716,16447
20080717,16350
20080718,16613
20080722,16713
20080723,16790
20080724,17134
20080725,17124
20080728,16999
20080729,17012
20080730,16982
20080731,17208
20080801,17330
20080804,17104
20080805,16994
20080806,16719
20080807,17125
20080808,17056
20080811,16939
20080812,17060
20080813,16653
20080814,16604
20080815,16842
20080818,16823
20080819,16783
20080820,16536
20080821,16656
20080822,16481
20080825,16781
20080826,16832
20080827,16777
20080828,16980
20080829,16853
20080901,16854
20080902,16667
20080903,16724
20080904,16614
20080905,16117
20080908,15976
20080909,16004
20080910,15500
20080911,15125
20080912,14660
20080916,13674
20080917,13536
20080918,13164
20080919,13112
20080922,14069
20080924,13869
20080925,13962
20080926,14007
20080929,14052
20080930,13360
20081001,13544
20081002,13499
20081003,13474
20081006,13175
20081007,12098
20081008,11808
20081009,10846
20081010,10829
20081014,10998
20081015,11428
20081016,10930
20081017,10575
20081020,10288
20081021,10360
20081022,10259
20081023,9641
20081024,9260
20081027,8438
20081028,7647
20081029,8067
20081030,8332
20081031,8882
20081104,9506
20081105,9701
20081106,9677
20081107,9265
20081110,9535
20081111,9491
20081112,9226
20081113,8854
20081114,8766
20081117,8820
20081118,8696
20081119,8405
20081120,8301
20081121,7870
20081125,8027
20081126,8112
20081127,8286
20081128,8398
20081201,8507
20081202,8349
20081203,8019
20081204,8102
20081205,8056
20081208,8074
20081209,8266
20081210,8499
20081211,8738
20081212,8692
20081215,8414
20081216,8671
20081217,8446
20081218,8478
20081219,8754
20081222,8699
20081224,8470
20081225,8460
20081226,8456
20081229,8408
20081230,8489
20090105,8823
20090106,9250
20090107,9350
20090108,9216
20090109,8823
20090113,8538
20090114,8397
20090115,8377
20090116,8229
20090119,8409
20090120,8324
20090121,8148
20090122,7862
20090123,7916
20090126,7843
20090127,7898
20090128,7900
20090129,8055
20090130,8028
20090202,8023
20090203,7861
20090204,7814
20090205,7886
20090206,8064
20090209,8336
20090210,8322
20090212,8106
20090213,8115
20090216,8253
20090217,8202
20090218,8024
20090219,8095
20090220,8114
20090223,7889
20090224,8066
20090225,8114
20090226,8261
20090227,8159
20090302,8070
20090303,7913
20090304,8014
20090305,8230
20090306,8195
20090309,8125
20090310,8048
20090311,8143
20090312,8107
20090313,8081
20090316,8291
20090317,8318
20090318,8312
20090319,8257
20090323,8347
20090324,8784
20090325,8934
20090326,8902
20090327,9193
20090330,9212
20090331,8920
20090401,8952
20090402,9006
20090403,9499
20090406,9703
20090407,9788
20090408,9796
20090409,9557
20090410,9714
20090413,9749
20090414,9969
20090415,9984
20090416,10083
20090417,10238
20090420,10178
20090421,9975
20090422,9841
20090423,9741
20090424,9761
20090427,9768
20090428,9589
20090430,9848
20090501,10377
20090507,11096
20090508,11386
20090511,11426
20090512,11200
20090513,11060
20090514,11043
20090515,10831
20090518,10758
20090519,11016
20090520,11336
20090521,11266
20090522,11202
20090525,11185
20090526,11329
20090527,11215
20090528,11565
20090529,11554
20090601,11494
20090602,12127
20090603,12042
20090604,12196
20090605,12312
20090608,12810
20090609,12510
20090610,12324
20090611,12585
20090612,12597
20090615,12590
20090616,12236
20090617,11782
20090618,11609
20090619,11558
20090622,11554
20090623,11365
20090624,11101
20090625,11482
20090626,11677
20090629,11720
20090630,11777
20090701,11655
20090702,11704
20090703,11599
20090706,11623
20090707,11545
20090708,11452
20090709,11221
20090710,11340
20090713,11204
20090714,11015
20090715,11231
20090716,11647
20090717,11654
20090721,11831
20090722,11878
20090723,11885
20090724,12225
20090727,12447
20090728,12675
20090729,12744
20090730,12731
20090731,12857
20090803,12965
20090804,13185
20090805,13269
20090806,13179
20090807,13322
20090810,13331
20090811,13526
20090812,13551
20090813,13422
20090814,13540
20090817,13417
20090818,13162
20090819,13077
20090820,12866
20090821,13002
20090824,13119
20090825,13390
20090826,13360
20090827,13270
20090828,13224
20090831,13115
20090901,13056
20090902,12983
20090903,12716
20090904,12917
20090907,13025
20090908,13112
20090909,13303
20090910,13288
20090911,13296
20090914,13249
20090915,13148
20090916,13182
20090917,13360
20090918,13504
20090924,13644
20090925,13519
20090928,13199
20090929,13099
20090930,13277
20091001,13303
20091002,13265
20091005,13128
20091006,13054
20091007,13358
20091008,13498
20091009,13612
20091013,13690
20091014,13721
20091015,13957
20091016,14139
20091019,13993
20091020,13965
20091021,14007
20091022,13927
20091023,13804
20091026,14059
20091027,13985
20091028,13699
20091029,13296
20091030,13189
20091102,13166
20091104,12799
20091105,13048
20091106,13079
20091109,13090
20091110,13174
20091111,13121
20091112,13362
20091113,13425
20091116,13341
20091117,13406
20091118,13407
20091119,13405
20091120,13250
20091124,13041
20091125,12890
20091126,12730
20091127,12365
20091130,12293
20091201,12407
20091202,12662
20091203,12878
20091204,13021
20091207,13328
20091208,13095
20091209,12934
20091210,12672
20091211,12654
20091214,12749
20091215,12784
20091216,12855
20091217,12803
20091218,12501
20091221,12594
20091222,12581
20091224,12848
20091225,12875
20091228,12978
20091229,13061
20091230,13135
20100104,13385
20100105,13556
20100106,13654
20100107,13839
20100108,13915
20100112,13837
20100113,13603
20100114,13514
20100115,13505
20100118,13353
20100119,13173
20100120,13313
20100121,13170
20100122,12779
20100125,12597
20100126,12577
20100127,12263
20100128,12192
20100129,12338
20100201,12369
20100202,12408
20100203,12394
20100204,12631
20100205,12335
20100208,11896
20100209,11723
20100210,11842
20100212,12116
20100215,12249
20100216,12167
20100217,12354
20100218,12602
20100219,12612
20100222,12503
20100223,12559
20100224,12355
20100225,12242
20100226,12103
20100301,12108
20100302,12254
20100303,12170
20100304,12187
20100305,12199
20100308,12500
20100309,12645
20100310,12694
20100311,12782
20100312,12777
20100315,12765
20100316,12608
20100317,12598
20100318,12798
20100319,12757
20100323,12628
20100324,12639
20100325,12960
20100326,13039
20100329,13098
20100330,13054
20100331,13174
20100401,13218
20100402,13457
20100405,13492
20100406,13617
20100407,13607
20100408,13581
20100409,13482
20100412,13423
20100413,13456
20100414,13473
20100415,13479
20100416,13346
20100419,13127
20100420,12941
20100421,13120
20100422,13158
20100423,13329
20100426,13410
20100427,13480
20100428,13297
20100430,13351
20100506,12898
20100507,12387
20100510,12310
20100511,12670
20100512,12681
20100513,12713
20100514,12750
20100517,12637
20100518,12394
20100519,12248
20100520,11939
20100521,11516
20100524,11325
20100525,11346
20100526,10991
20100527,11327
20100528,11690
20100531,11832
20100601,11904
20100602,11743
20100603,11892
20100604,12218
20100607,11959
20100608,11739
20100609,11763
20100610,11695
20100611,11720
20100614,11844
20100615,11923
20100616,11944
20100617,11969
20100618,11942
20100621,12019
20100622,12235
20100623,12097
20100624,11992
20100625,11821
20100628,11824
20100629,11807
20100630,11555
20100701,11546
20100702,11375
20100705,11251
20100706,11178
20100707,11341
20100708,11370
20100709,11509
20100712,11636
20100713,11631
20100714,11703
20100715,11666
20100716,11538
20100720,11393
20100721,11463
20100722,11420
20100723,11465
20100726,11605
20100727,11457
20100728,11647
20100729,11552
20100730,11546
20100802,11524
20100803,11539
20100804,11335
20100805,11426
20100806,11496
20100809,11424
20100810,11459
20100811,11226
20100812,11114
20100813,11120
20100816,11074
20100817,11100
20100818,11174
20100819,11209
20100820,11204
20100823,11236
20100824,11136
20100825,10862
20100826,10881
20100827,10909
20100830,11006
20100831,10924
20100901,10870
20100902,11019
20100903,11061
20100906,11179
20100907,11261
20100908,11175
20100909,11203
20100910,11394
20100913,11350
20100914,11399
20100915,11530
20100916,11797
20100917,11759
20100921,11859
20100922,11715
20100924,11563
20100927,11591
20100928,11667
20100929,11574
20100930,11592
20101001,11559
20101004,11575
20101005,11702
20101006,11677
20101007,11754
20101008,11669
20101012,11557
20101013,11430
20101014,11570
20101015,11617
20101018,11514
20101019,11422
20101020,11442
20101021,11340
20101022,11438
20101025,11446
20101026,11477
20101027,11594
20101028,11508
20101029,11400
20101101,11378
20101102,11495
20101104,11710
20101105,12059
20101108,12496
20101109,12708
20101110,13004
20101111,13275
20101112,13663
20101115,13513
20101116,13820
20101117,13991
20101118,13805
20101119,14041
20101122,14565
20101124,14442
20101125,14638
20101126,14823
20101129,14748
20101130,15013
20101201,14572
20101202,15117
20101203,15340
20101206,15284
20101207,15397
20101208,15663
20101209,15680
20101210,15743
20101213,15635
20101214,15613
20101215,15752
20101216,15676
20101217,15325
20101220,15398
20101221,15280
20101222,15630
20101224,15699
20101227,15761
20101228,15723
20101229,15731
20101230,15739
20110104,16193
20110105,16330
20110106,16601
20110107,16497
20110111,15842
20110112,15916
20110113,16140
20110114,16119
20110117,16254
20110118,16087
20110119,16034
20110120,15983
20110121,15894
20110124,15611
20110125,15388
20110126,15403
20110127,15547
20110128,15808
20110131,15538
20110201,15336
20110202,15236
20110203,15487
20110204,15495
20110207,15636
20110208,15648
20110209,15604
20110210,15348
20110214,15220
20110215,15216
20110216,15273
20110217,15315
20110218,15364
20110221,15354
20110222,15192
20110223,14819
20110224,14686
20110225,14404
20110228,14439
20110301,14564
20110302,14739
20110303,14596
20110304,14788
20110307,14961
20110308,14951
20110309,15167
20110310,15217
20110311,15203
20110314,14940
20110315,14923
20110316,14423
20110317,14099
20110318,14277
20110322,14428
20110323,14450
20110324,14545
20110325,14625
20110328,14741
20110329,14778
20110330,14883
20110331,15176
20110401,15332
20110404,15653
20110405,15809
20110406,15908
20110407,16147
20110408,16045
20110411,16150
20110412,15912
20110413,15758
20110414,15771
20110415,15677
20110418,15559
20110419,15412
20110420,15435
20110421,15510
20110422,15464
20110425,15481
20110426,15473
20110427,15278
20110428,15439
20110502,15349
20110506,14958
20110509,14885
20110510,14880
20110511,15118
20110512,15330
20110513,15121
20110516,15058
20110517,14864
20110518,14906
20110519,15051
20110520,15046
20110523,14908
20110524,14517
20110525,14511
20110526,14242
20110527,14203
20110530,14183
20110531,14211
20110601,14376
20110602,14354
20110603,14331
20110606,14161
20110607,13992
20110608,14002
20110609,13882
20110610,13692
20110613,13604
20110614,13427
20110615,13487
20110616,13558
20110617,13380
20110620,13155
20110621,13087
20110622,13346
20110623,13342
20110624,13277
20110627,13409
20110628,13269
20110629,13291
20110630,13309
20110701,13475
20110704,13505
20110705,13704
20110706,13631
20110707,13606
20110708,13672
20110711,13694
20110712,13422
20110713,13058
20110714,13051
20110715,13157
20110719,13062
20110720,13116
20110721,13115
20110722,13088
20110725,13086
20110726,13029
20110727,13034
20110728,13126
20110729,13065
20110801,13053
20110802,13036
20110803,12859
20110804,12912
20110805,12894
20110808,12284
20110809,11842
20110810,11425
20110811,11552
20110812,11514
20110815,11547
20110816,11715
20110817,11665
20110818,11676
20110819,11758
20110822,11381
20110823,11301
20110824,11419
20110825,11267
20110826,11342
20110829,11178
20110830,11292
20110831,11292
20110901,11488
20110902,11558
20110905,11517
20110906,11414
20110907,11437
20110908,11630
20110909,11666
20110912,11586
20110913,11245
20110914,11150
20110915,10952
20110916,10938
20110920,10724
20110921,10591
20110922,10512
20110926,9828
20110927,9430
20110928,9737
20110929,9749
20110930,9792
20111003,9783
20111004,9319
20111005,9121
20111006,9170
20111007,9455
20111011,9643
20111012,9813
20111013,10030
20111014,10072
20111017,10121
20111018,10239
20111019,9966
20111020,10053
20111021,9869
20111024,9811
20111025,9970
20111026,10023
20111027,10052
20111028,10302
20111031,10566
20111101,10580
20111102,10320
20111104,10257
20111107,10379
20111108,10352
20111109,10397
20111110,10299
20111111,9933
20111114,9899
20111115,9969
20111116,9897
20111117,9773
20111118,9717
20111121,9508
20111122,9382
20111124,9349
20111125,9362
20111128,9276
20111129,9371
20111130,9408
20111201,9389
20111202,9644
20111205,9718
20111206,9726
20111207,9650
20111208,9702
20111209,9608
20111212,9454
20111213,9450
20111214,9308
20111215,9254
20111216,9176
20111219,9268
20111220,9217
20111221,9204
20111222,9321
20111226,9302
20111227,9264
20111228,9213
20111229,9140
20111230,9150
20120104,9151
20120105,9201
20120106,9209
20120110,9100
20120111,9213
20120112,9228
20120113,9201
20120116,9195
20120117,9110
20120118,9262
20120119,9340
20120120,9484
20120123,9491
20120124,9498
20120125,9546
20120126,9576
20120127,9525
20120130,9520
20120131,9369
20120201,9358
20120202,9411
20120203,9543
20120206,9542
20120207,9551
20120208,9597
20120209,9774
20120210,9830
20120213,9719
20120214,9687
20120215,9770
20120216,9819
20120217,9804
20120220,10024
20120221,10126
20120222,10011
20120223,10134
20120224,10020
20120227,10132
20120228,9922
20120229,10049
20120301,10272
20120302,10233
20120305,10376
20120306,10311
20120307,10032
20120308,10051
20120309,10123
20120312,10221
20120313,10188
20120314,10351
20120315,10509
20120316,10454
20120319,10469
20120321,10373
20120322,10340
20120323,10198
20120326,10235
20120327,10225
20120328,10336
20120329,10236
20120330,10147
20120402,10301
20120403,10122
20120404,10368
20120405,10133
20120406,10110
20120409,10000
20120410,10016
20120411,9838
20120412,9763
20120413,9852
20120416,9897
20120417,9826
20120418,9873
20120419,9960
20120420,9933
20120423,9865
20120424,9723
20120425,9795
20120426,9796
20120427,9787
20120501,9667
20120502,9703
20120507,9701
20120508,9552
20120509,9570
20120510,9404
20120511,9363
20120514,9288
20120515,9100
20120516,9072
20120517,8838
20120518,8781
20120521,8621
20120522,8699
20120523,8778
20120524,8625
20120525,8642
20120528,8601
20120529,8639
20120530,8713
20120531,8572
20120601,8504
20120604,8359
20120605,8115
20120606,8200
20120607,8479
20120608,8521
20120611,8425
20120612,8497
20120613,8516
20120614,8538
20120615,8450
20120618,8496
20120619,8547
20120620,8573
20120621,8685
20120622,8630
20120625,8581
20120626,8433
20120627,8422
20120628,8502
20120629,8411
20120702,8604
20120703,8629
20120704,8765
20120705,8792
20120706,8813
20120709,8722
20120710,8556
20120711,8563
20120712,8607
20120713,8467
20120717,8548
20120718,8631
20120719,8519
20120720,8534
20120723,8464
20120724,8299
20120725,8250
20120726,8220
20120727,8222
20120730,8352
20120731,8399
20120801,8457
20120802,8502
20120803,8403
20120806,8465
20120807,8477
20120808,8519
20120809,8526
20120810,8556
20120813,8498
20120814,8480
20120815,8569
20120816,8590
20120817,8612
20120820,8629
20120821,8611
20120822,8566
20120823,8466
20120824,8481
20120827,8347
20120828,8229
20120829,8244
20120830,8231
20120831,8114
20120903,8149
20120904,8224
20120905,8193
20120906,8088
20120907,8141
20120910,8190
20120911,8146
20120912,8123
20120913,8161
20120914,8184
20120918,8475
20120919,8418
20120920,8387
20120921,8306
20120924,8300
20120925,8218
20120926,8222
20120927,8149
20120928,8203
20121001,8276
20121002,8260
20121003,8303
20121004,8356
20121005,8401
20121009,8359
20121010,8317
20121011,8297
20121012,8333
20121015,8342
20121016,8341
20121017,8396
20121018,8505
20121019,8540
20121022,8462
20121023,8526
20121024,8479
20121025,8445
20121026,8452
20121029,8368
20121030,8371
20121031,8360
20121101,8405
20121102,8445
20121105,8442
20121106,8411
20121107,8452
20121108,8465
20121109,8340
20121112,8375
20121113,8422
20121114,8378
20121115,8449
20121116,8478
20121119,8503
20121120,8491
20121121,8577
20121122,8658
20121126,8733
20121127,8670
20121128,8633
20121129,8597
20121130,8541
20121203,8576
20121204,8559
20121205,8514
20121206,8597
20121207,8623
20121210,8637
20121211,8600
20121212,8635
20121213,8755
20121214,8780
20121217,8772
20121218,8711
20121219,8762
20121220,8798
20121221,8799
20121225,8828
20121226,8867
20121227,8960
20121228,9018
20130104,9419
20130107,9473
20130108,9498
20130109,9457
20130110,9573
20130111,9664
20130115,9779
20130116,9641
20130117,9642
20130118,9756
20130121,9894
20130122,9898
20130123,9775
20130124,9760
20130125,10086
20130128,10178
20130129,10256
20130130,10493
20130131,10639
20130201,10678
20130204,10866
20130205,10904
20130206,11025
20130207,11061
20130208,11069
20130212,11200
20130213,11197
20130214,11285
20130215,11249
20130218,11382
20130219,11408
20130220,11615
20130221,12020
20130222,11860
20130225,12067
20130226,12049
20130227,11857
20130228,11959
20130301,12307
20130304,12373
20130305,12154
20130306,12215
20130307,12606
20130308,12686
20130311,13158
20130312,13305
20130313,13533
20130314,13412
20130315,13660
20130318,13676
20130319,13862
20130321,14054
20130322,14050
20130325,14074
20130326,14346
20130327,14600
20130328,14944
20130329,15019
20130401,15067
20130402,14907
20130403,15031
20130404,14806
20130405,15391
20130408,15516
20130409,15688
20130410,15648
20130411,15760
20130412,15836
20130415,15563
20130416,15153
20130417,15425
20130418,15562
20130419,15642
20130422,16115
20130423,16081
20130424,16106
20130425,16451
20130426,16619
20130430,16583
20130501,16691
20130502,16763
20130507,17186
20130508,17470
20130509,17653
20130510,18162
20130513,18397
20130514,18622
20130515,18710
20130516,19213
20130517,19330
20130520,19636
20130521,20035
20130522,20177
20130523,20517
20130524,20037
20130527,20005
20130528,20245
20130529,20573
20130530,20725
20130531,20923
20130603,21009
20130604,20461
20130605,20586
20130606,20124
20130607,19755
20130610,19723
20130611,19750
20130612,18831
20130613,18547
20130614,18022
20130617,18243
20130618,18246
20130619,18453
20130620,18546
20130621,18219
20130624,18129
20130625,17495
20130626,17415
20130627,17761
20130628,18198
20130701,18586
20130702,18588
20130703,18756
20130704,18299
20130705,18365
20130708,18541
20130709,18170
20130710,18221
20130711,18047
20130712,18282
20130716,18596
20130717,18492
20130718,18525
20130719,18763
20130722,18619
20130723,18505
20130724,18666
20130725,18646
20130726,18351
20130729,18040
20130730,17832
20130731,17756
20130801,17576
20130802,17926
20130805,17810
20130806,17636
20130807,17439
20130808,17298
20130809,17353
20130812,17259
20130813,17470
20130814,17553
20130815,17550
20130816,17286
20130819,17176
20130820,16930
20130821,16458
20130822,16354
20130823,16209
20130826,15993
20130827,15781
20130828,15271
20130829,15047
20130830,15331
20130902,15488
20130903,15653
20130904,15684
20130905,15528
20130906,15518
20130909,15496
20130910,15709
20130911,16064
20130912,15993
20130913,15878
20130917,15915
20130918,15976
20130919,15832
20130920,16372
20130924,16059
20130925,15931
20130926,15854
20130927,15931
20130930,15668
20131001,15510
20131002,15548
20131003,15603
20131004,15582
20131007,15616
20131008,15465
20131009,15434
20131010,15500
20131011,15740
20131015,15878
20131016,15858
20131017,15965
20131018,15890
20131021,15979
20131022,15944
20131023,15835
20131024,15665
20131025,15495
20131028,15488
20131029,15350
20131030,15409
20131031,15350
20131101,15143
20131105,15068
20131106,15092
20131107,15107
20131108,15018
20131111,15007
20131112,14999
20131113,14951
20131114,14841
20131115,15022
20131118,15061
20131119,14984
20131120,14871
20131121,14652
20131122,14576
20131125,14599
20131126,14421
20131127,14315
20131128,14326
20131129,14296
20131202,14320
20131203,14499
20131204,14364
20131205,14050
20131206,13791
20131209,13772
20131210,13787
20131211,13667